WZZ9FW LHBP-LRBS

Flight info

Callsign WZZ9FW
Flight time 0h 57m
Altitude 37000
Route VETIK2B VETIK DCT UVERA DCT DVA DCT ABRUT ABRUT1V
Aircraft A321/M-SDE1E2E3FGIJ1J4RWXY/LB1

Departure

Time 2026-05-04 18:16
Airport Budapest Liszt Ferenc International Airport (LHBP)

Arrival

Time 2026-05-04 19:13
Airport Bucharest Băneasa Aurel Vlaicu International Airport (LRBS)
Time Latitude Longitude Altitude Speed Heading
2026-05-04 17:35 47.43543 19.26017 458 ft 0 kts 312°
2026-05-04 18:09 47.43545 19.26013 457 ft 3 kts 312°
2026-05-04 18:10 47.43567 19.25979 457 ft 6 kts 312°
2026-05-04 18:10 47.43592 19.25973 457 ft 4 kts 26°
2026-05-04 18:10 47.43624 19.26007 456 ft 7 kts 39°
2026-05-04 18:10 47.43664 19.26050 457 ft 6 kts 17°
2026-05-04 18:11 47.43695 19.26019 457 ft 6 kts 324°
2026-05-04 18:11 47.43715 19.25998 457 ft 6 kts 324°
2026-05-04 18:11 47.43752 19.25965 457 ft 7 kts 342°
2026-05-04 18:11 47.43796 19.25995 457 ft 8 kts 40°
2026-05-04 18:12 47.43840 19.26052 457 ft 9 kts 42°
2026-05-04 18:12 47.43890 19.26120 458 ft 10 kts 43°
2026-05-04 18:12 47.43946 19.26195 458 ft 11 kts 42°
2026-05-04 18:12 47.43995 19.26260 460 ft 4 kts 42°
2026-05-04 18:13 47.44017 19.26290 460 ft 5 kts 43°
2026-05-04 18:13 47.44042 19.26329 464 ft 5 kts 49°
2026-05-04 18:13 47.44068 19.26425 471 ft 8 kts 78°
2026-05-04 18:14 47.44063 19.26523 471 ft 11 kts 114°
2026-05-04 18:14 47.44039 19.26572 469 ft 0 kts 130°
2026-05-04 18:15 47.44006 19.26627 470 ft 32 kts 131°
2026-05-04 18:15 47.43667 19.27169 473 ft 109 kts 132°
2026-05-04 18:16 47.42999 19.28243 484 ft 168 kts 133°
2026-05-04 18:16 47.42201 19.29523 1180 ft 169 kts 134°
2026-05-04 18:16 47.41500 19.30913 1910 ft 169 kts 125°
2026-05-04 18:17 47.40400 19.33949 3195 ft 167 kts 122°
2026-05-04 18:17 47.39864 19.35444 3771 ft 168 kts 122°
2026-05-04 18:17 47.38604 19.38870 4287 ft 213 kts 119°
2026-05-04 18:18 47.38367 19.41156 4441 ft 246 kts 81°
2026-05-04 18:18 47.39180 19.43527 4729 ft 274 kts 52°
2026-05-04 18:18 47.40534 19.45589 5378 ft 284 kts 43°
2026-05-04 18:18 47.42038 19.47508 6204 ft 286 kts 41°
2026-05-04 18:19 47.43866 19.52582 7769 ft 288 kts 88°
2026-05-04 18:19 47.43682 19.55526 8535 ft 289 kts 102°
2026-05-04 18:19 47.43320 19.58456 9334 ft 291 kts 102°
2026-05-04 18:20 47.42954 19.61422 10099 ft 295 kts 102°
2026-05-04 18:20 47.42573 19.64493 10418 ft 315 kts 102°
2026-05-04 18:20 47.42170 19.67760 10625 ft 336 kts 101°
2026-05-04 18:20 47.41746 19.71212 11174 ft 344 kts 101°
2026-05-04 18:21 47.41317 19.74723 11871 ft 348 kts 101°
2026-05-04 18:21 47.40888 19.78251 12575 ft 352 kts 101°
2026-05-04 18:21 47.40451 19.81830 13275 ft 355 kts 101°
2026-05-04 18:21 47.40008 19.85442 13962 ft 359 kts 101°
2026-05-04 18:22 47.39559 19.89082 14591 ft 362 kts 101°
2026-05-04 18:22 47.39104 19.92755 15226 ft 365 kts 101°
2026-05-04 18:22 47.38650 19.96422 15872 ft 368 kts 100°
2026-05-04 18:22 47.38187 20.00158 16529 ft 371 kts 100°
2026-05-04 18:23 47.37717 20.03918 17186 ft 373 kts 100°
2026-05-04 18:23 47.37243 20.07685 17939 ft 373 kts 100°
2026-05-04 18:23 47.36764 20.11468 18574 ft 376 kts 100°
2026-05-04 18:23 47.36282 20.15286 18941 ft 378 kts 99°
2026-05-04 18:24 47.35700 20.19016 19038 ft 379 kts 108°
2026-05-04 18:24 47.34623 20.22581 19430 ft 383 kts 119°
2026-05-04 18:24 47.33083 20.25811 19996 ft 386 kts 130°
2026-05-04 18:24 47.31151 20.28593 20559 ft 390 kts 138°
2026-05-04 18:25 47.29112 20.31256 21118 ft 393 kts 135°
2026-05-04 18:25 47.27481 20.34481 21629 ft 394 kts 115°
2026-05-04 18:25 47.26663 20.38318 22152 ft 395 kts 96°
2026-05-04 18:25 47.26617 20.42369 22694 ft 397 kts 86°
2026-05-04 18:26 47.26733 20.46392 23240 ft 400 kts 86°
2026-05-04 18:26 47.26859 20.50501 23747 ft 403 kts 86°
2026-05-04 18:26 47.26982 20.54659 24188 ft 405 kts 86°
2026-05-04 18:26 47.27101 20.58801 24620 ft 408 kts 86°
2026-05-04 18:27 47.27216 20.62998 25044 ft 411 kts 86°
2026-05-04 18:27 47.27326 20.67217 25463 ft 413 kts 86°
2026-05-04 18:27 47.27431 20.71472 25875 ft 416 kts 86°
2026-05-04 18:27 47.27532 20.75744 26288 ft 418 kts 86°
2026-05-04 18:28 47.27629 20.80037 26701 ft 421 kts 86°
2026-05-04 18:28 47.27723 20.84368 27093 ft 423 kts 86°
2026-05-04 18:28 47.27810 20.88664 27495 ft 426 kts 86°
2026-05-04 18:28 47.27766 20.93038 27875 ft 431 kts 96°
2026-05-04 18:29 47.26970 20.97328 28238 ft 437 kts 112°
2026-05-04 18:29 47.25348 21.01140 28580 ft 444 kts 130°
2026-05-04 18:29 47.23165 21.04390 28937 ft 448 kts 134°
2026-05-04 18:29 47.20912 21.07594 29304 ft 451 kts 134°
2026-05-04 18:30 47.16374 21.13986 30000 ft 457 kts 134°
2026-05-04 18:30 47.14069 21.17233 30303 ft 459 kts 134°
2026-05-04 18:30 47.11756 21.20502 30592 ft 462 kts 134°
2026-05-04 18:31 47.09433 21.23788 30893 ft 464 kts 134°
2026-05-04 18:31 47.07100 21.27091 31189 ft 466 kts 134°
2026-05-04 18:31 47.04757 21.30407 31497 ft 468 kts 134°
2026-05-04 18:31 47.02408 21.33725 31800 ft 470 kts 134°
2026-05-04 18:32 47.00068 21.37025 32142 ft 471 kts 134°
2026-05-04 18:32 46.97707 21.40345 32578 ft 470 kts 134°
2026-05-04 18:32 46.95341 21.43660 32965 ft 470 kts 134°
2026-05-04 18:33 46.90611 21.50282 33075 ft 469 kts 134°
2026-05-04 18:33 46.85921 21.56826 33076 ft 457 kts 134°
2026-05-04 18:34 46.81447 21.63377 33079 ft 453 kts 130°
2026-05-04 18:34 46.77280 21.70176 33079 ft 452 kts 128°
2026-05-04 18:35 46.73124 21.77060 33078 ft 452 kts 129°
2026-05-04 18:35 46.68898 21.83865 33078 ft 452 kts 129°
2026-05-04 18:36 46.64623 21.90602 33085 ft 452 kts 130°
2026-05-04 18:36 46.60350 21.97327 33094 ft 452 kts 130°
2026-05-04 18:37 46.56098 22.04053 33093 ft 451 kts 130°
2026-05-04 18:37 46.51870 22.10738 33101 ft 451 kts 130°
2026-05-04 18:38 46.47612 22.17446 33107 ft 451 kts 130°
2026-05-04 18:38 46.43336 22.24152 33109 ft 451 kts 130°
2026-05-04 18:39 46.39099 22.30781 33113 ft 451 kts 130°
2026-05-04 18:39 46.34831 22.37444 33118 ft 450 kts 130°
2026-05-04 18:40 46.30563 22.44086 33123 ft 450 kts 130°
2026-05-04 18:40 46.26299 22.50712 33118 ft 450 kts 130°
2026-05-04 18:41 46.22038 22.57322 33118 ft 449 kts 130°
2026-05-04 18:41 46.17774 22.63915 33125 ft 449 kts 130°
2026-05-04 18:42 46.13511 22.70486 33111 ft 449 kts 131°
2026-05-04 18:42 46.09236 22.77054 33105 ft 449 kts 131°
2026-05-04 18:43 46.04959 22.83612 33127 ft 449 kts 131°
2026-05-04 18:43 46.00685 22.90163 33118 ft 449 kts 131°
2026-05-04 18:44 45.96423 22.96727 33107 ft 448 kts 127°
2026-05-04 18:44 45.92790 23.03957 33123 ft 446 kts 123°
2026-05-04 18:45 45.89193 23.11222 33107 ft 446 kts 123°
2026-05-04 18:45 45.85585 23.18468 33112 ft 446 kts 123°
2026-05-04 18:46 45.81974 23.25708 33119 ft 446 kts 123°
2026-05-04 18:46 45.78364 23.32936 33127 ft 446 kts 123°
2026-05-04 18:47 45.74749 23.40163 33131 ft 446 kts 123°
2026-05-04 18:47 45.71140 23.47365 33121 ft 446 kts 123°
2026-05-04 18:48 45.67516 23.54568 33136 ft 445 kts 124°
2026-05-04 18:48 45.63892 23.61745 33139 ft 445 kts 124°
2026-05-04 18:49 45.60268 23.68897 33136 ft 445 kts 124°
2026-05-04 18:49 45.56646 23.76047 32903 ft 441 kts 124°
2026-05-04 18:49 45.54854 23.79572 32640 ft 437 kts 124°
2026-05-04 18:50 45.53673 23.81895 32464 ft 435 kts 124°
2026-05-04 18:50 45.51899 23.85383 32212 ft 433 kts 124°
2026-05-04 18:50 45.50131 23.88854 31947 ft 432 kts 124°
2026-05-04 18:50 45.48369 23.92309 31687 ft 430 kts 124°
2026-05-04 18:51 45.46619 23.95738 31402 ft 426 kts 124°
2026-05-04 18:51 45.44880 23.99139 30926 ft 423 kts 124°
2026-05-04 18:51 45.43148 24.02519 30446 ft 422 kts 125°
2026-05-04 18:51 45.41422 24.05882 29918 ft 420 kts 125°
2026-05-04 18:52 45.39712 24.09212 29451 ft 416 kts 126°
2026-05-04 18:52 45.38014 24.12518 28992 ft 412 kts 126°
2026-05-04 18:52 45.36329 24.15795 28539 ft 409 kts 126°
2026-05-04 18:52 45.34654 24.19050 28091 ft 406 kts 126°
2026-05-04 18:53 45.32993 24.22276 27658 ft 403 kts 126°
2026-05-04 18:53 45.31339 24.25482 27219 ft 401 kts 126°
2026-05-04 18:53 45.29691 24.28673 26803 ft 398 kts 126°
2026-05-04 18:53 45.28055 24.31833 26392 ft 396 kts 125°
2026-05-04 18:54 45.26425 24.34974 25977 ft 395 kts 125°
2026-05-04 18:54 45.24806 24.38095 25569 ft 393 kts 125°
2026-05-04 18:54 45.23186 24.41217 25135 ft 391 kts 124°
2026-05-04 18:54 45.21580 24.44312 24719 ft 389 kts 124°
2026-05-04 18:55 45.19977 24.47398 24310 ft 387 kts 124°
2026-05-04 18:55 45.16787 24.53521 23410 ft 385 kts 123°
2026-05-04 18:55 45.15200 24.56557 22961 ft 382 kts 123°
2026-05-04 18:56 45.13623 24.59568 22515 ft 379 kts 123°
2026-05-04 18:56 45.12063 24.62543 22089 ft 375 kts 123°
2026-05-04 18:56 45.10513 24.65498 21635 ft 372 kts 123°
2026-05-04 18:56 45.08977 24.68429 21196 ft 369 kts 123°
2026-05-04 18:57 45.07458 24.71326 20751 ft 366 kts 123°
2026-05-04 18:57 45.05950 24.74206 20319 ft 363 kts 123°
2026-05-04 18:57 45.04449 24.77066 19881 ft 360 kts 123°
2026-05-04 18:57 45.02960 24.79898 19447 ft 358 kts 123°
2026-05-04 18:58 45.01481 24.82706 19019 ft 355 kts 123°
2026-05-04 18:58 45.00013 24.85491 18600 ft 353 kts 123°
2026-05-04 18:58 44.98552 24.88261 18128 ft 350 kts 123°
2026-05-04 18:58 44.97104 24.91006 17693 ft 346 kts 123°
2026-05-04 18:59 44.95670 24.93714 17273 ft 342 kts 123°
2026-05-04 18:59 44.94254 24.96385 16857 ft 337 kts 123°
2026-05-04 18:59 44.92854 24.99020 16445 ft 334 kts 123°
2026-05-04 18:59 44.91469 25.01632 16038 ft 330 kts 122°
2026-05-04 19:00 44.90103 25.04207 15634 ft 327 kts 122°
2026-05-04 19:00 44.88744 25.06769 15238 ft 324 kts 122°
2026-05-04 19:00 44.87401 25.09299 14833 ft 321 kts 122°
2026-05-04 19:00 44.86068 25.11808 14447 ft 318 kts 122°
2026-05-04 19:01 44.84744 25.14293 14056 ft 316 kts 122°
2026-05-04 19:01 44.83426 25.16763 13657 ft 314 kts 122°
2026-05-04 19:01 44.82119 25.19208 13251 ft 311 kts 122°
2026-05-04 19:01 44.80820 25.21634 12864 ft 308 kts 122°
2026-05-04 19:02 44.79535 25.24030 12494 ft 305 kts 122°
2026-05-04 19:02 44.78265 25.26403 12119 ft 302 kts 121°
2026-05-04 19:02 44.77006 25.28758 11749 ft 300 kts 121°
2026-05-04 19:02 44.75757 25.31094 11384 ft 298 kts 121°
2026-05-04 19:03 44.74508 25.33429 11017 ft 299 kts 121°
2026-05-04 19:03 44.73239 25.35803 10647 ft 307 kts 121°
2026-05-04 19:03 44.71954 25.38197 10267 ft 306 kts 121°
2026-05-04 19:03 44.70682 25.40563 10011 ft 300 kts 121°
2026-05-04 19:04 44.69436 25.42874 9841 ft 295 kts 121°
2026-05-04 19:04 44.68193 25.45183 9387 ft 297 kts 121°
2026-05-04 19:04 44.66948 25.47486 9065 ft 293 kts 122°
2026-05-04 19:04 44.65722 25.49753 9044 ft 291 kts 121°
2026-05-04 19:05 44.64496 25.52024 9046 ft 291 kts 121°
2026-05-04 19:05 44.63276 25.54283 9045 ft 291 kts 121°
2026-05-04 19:05 44.62055 25.56546 8967 ft 289 kts 121°
2026-05-04 19:05 44.60842 25.58791 8598 ft 287 kts 121°
2026-05-04 19:06 44.59639 25.61013 8086 ft 285 kts 122°
2026-05-04 19:06 44.58445 25.63218 7587 ft 283 kts 122°
2026-05-04 19:06 44.57260 25.65403 7128 ft 279 kts 122°
2026-05-04 19:06 44.56096 25.67544 6759 ft 273 kts 122°
2026-05-04 19:07 44.54947 25.69656 6378 ft 273 kts 122°
2026-05-04 19:07 44.53802 25.71765 6029 ft 272 kts 123°
2026-05-04 19:07 44.52672 25.73846 5639 ft 265 kts 123°
2026-05-04 19:07 44.51566 25.75877 5220 ft 259 kts 124°
2026-05-04 19:08 44.50489 25.77854 4794 ft 252 kts 125°
2026-05-04 19:08 44.49447 25.79766 4394 ft 241 kts 125°
2026-05-04 19:08 44.48446 25.81599 3979 ft 232 kts 126°
2026-05-04 19:08 44.47483 25.83360 3626 ft 223 kts 126°
2026-05-04 19:09 44.46566 25.85057 3377 ft 216 kts 122°
2026-05-04 19:09 44.45981 25.86962 3212 ft 212 kts 100°
2026-05-04 19:09 44.45933 25.88958 3118 ft 199 kts 79°
2026-05-04 19:09 44.46276 25.90768 2894 ft 187 kts 72°
2026-05-04 19:10 44.46632 25.92470 2664 ft 179 kts 72°
2026-05-04 19:10 44.46979 25.94133 2433 ft 172 kts 72°
2026-05-04 19:10 44.47301 25.95678 2227 ft 162 kts 72°
2026-05-04 19:10 44.47610 25.97161 2007 ft 158 kts 72°
2026-05-04 19:11 44.47918 25.98639 1797 ft 157 kts 73°
2026-05-04 19:11 44.48222 26.00100 1590 ft 156 kts 73°
2026-05-04 19:11 44.48527 26.01568 1380 ft 155 kts 73°
2026-05-04 19:11 44.48822 26.02990 1175 ft 153 kts 73°
2026-05-04 19:12 44.49115 26.04402 970 ft 150 kts 74°
2026-05-04 19:12 44.49686 26.07146 558 ft 145 kts 74°
2026-05-04 19:12 44.49964 26.08493 356 ft 144 kts 75°
2026-05-04 19:13 44.50220 26.09741 308 ft 115 kts 74°
2026-05-04 19:13 44.50394 26.10586 308 ft 66 kts 74°
2026-05-04 19:13 44.50468 26.10951 310 ft 6 kts 74°
2026-05-04 19:13 44.50473 26.11014 310 ft 7 kts 89°
2026-05-04 19:14 44.50481 26.11058 310 ft 2 kts 40°
2026-05-04 19:14 44.50488 26.11051 312 ft 2 kts 325°
2026-05-04 19:14 44.50492 26.11028 311 ft 4 kts 274°
2026-05-04 19:14 44.50479 26.10980 311 ft 7 kts 248°
2026-05-04 19:15 44.50462 26.10908 311 ft 9 kts 252°
2026-05-04 19:15 44.50443 26.10818 310 ft 11 kts 254°
2026-05-04 19:15 44.50421 26.10710 310 ft 13 kts 254°
2026-05-04 19:15 44.50394 26.10578 308 ft 15 kts 253°
2026-05-04 19:16 44.50373 26.10478 308 ft 6 kts 253°
2026-05-04 19:16 44.50349 26.10425 308 ft 6 kts 214°
2026-05-04 19:16 44.50303 26.10429 310 ft 7 kts 166°
2026-05-04 19:16 44.50256 26.10447 308 ft 5 kts 165°
2026-05-04 19:17 44.50217 26.10453 311 ft 7 kts 182°
2026-05-04 19:17 44.50175 26.10417 308 ft 8 kts 236°
2026-05-04 19:17 44.50153 26.10332 310 ft 10 kts 252°
2026-05-04 19:17 44.50132 26.10230 309 ft 12 kts 254°
2026-05-04 19:18 44.50108 26.10112 310 ft 12 kts 254°
2026-05-04 19:18 44.50085 26.10005 308 ft 11 kts 253°
2026-05-04 19:18 44.50062 26.09895 310 ft 13 kts 254°
2026-05-04 19:18 44.50036 26.09767 310 ft 15 kts 253°
2026-05-04 19:19 44.50010 26.09639 309 ft 3 kts 254°
2026-05-04 19:19 44.50009 26.09638 309 ft 0 kts 254°
2026-05-04 19:19 44.50004 26.09614 308 ft 5 kts 253°
2026-05-04 19:20 44.49991 26.09550 308 ft 9 kts 253°
2026-05-04 19:20 44.49969 26.09445 308 ft 13 kts 253°
2026-05-04 19:20 44.49949 26.09352 309 ft 0 kts 254°
2026-05-04 19:24 44.49947 26.09339 309 ft 2 kts 254°
2026-05-04 19:24 44.49940 26.09307 307 ft 4 kts 254°
2026-05-04 19:24 44.49930 26.09257 308 ft 6 kts 255°
2026-05-04 19:24 44.49917 26.09190 308 ft 8 kts 253°
2026-05-04 19:25 44.49899 26.09109 308 ft 10 kts 253°
2026-05-04 19:25 44.49880 26.09017 310 ft 9 kts 253°
2026-05-04 19:25 44.49863 26.08940 308 ft 7 kts 253°
2026-05-04 19:25 44.49851 26.08881 310 ft 6 kts 253°
2026-05-04 19:26 44.49840 26.08828 308 ft 6 kts 254°
2026-05-04 19:26 44.49829 26.08775 309 ft 6 kts 254°
2026-05-04 19:26 44.49817 26.08715 308 ft 8 kts 254°
2026-05-04 19:26 44.49800 26.08633 308 ft 10 kts 253°
2026-05-04 19:27 44.49780 26.08536 309 ft 10 kts 252°
2026-05-04 19:27 44.49766 26.08472 308 ft 5 kts 249°
2026-05-04 19:27 44.49745 26.08451 309 ft 3 kts 201°
2026-05-04 19:27 44.49719 26.08443 309 ft 4 kts 192°
2026-05-04 19:28 44.49689 26.08430 308 ft 3 kts 215°
2026-05-04 19:28 44.49681 26.08399 308 ft 4 kts 260°
2026-05-04 19:28 44.49683 26.08362 308 ft 3 kts 277°
2026-05-04 19:28 44.49685 26.08342 308 ft 4 kts 278°
2026-05-04 19:29 44.49693 26.08277 308 ft 4 kts 279°
2026-05-04 19:29 44.49696 26.08252 309 ft 3 kts 279°
2026-05-04 19:29 44.49699 26.08224 308 ft 2 kts 276°
2026-05-04 19:29 44.49692 26.08213 309 ft 1 kts 221°
2026-05-04 19:30 44.49680 26.08210 308 ft 3 kts 188°
2026-05-04 19:30 44.49669 26.08207 308 ft 2 kts 190°
2026-05-04 19:30 44.49663 26.08205 308 ft 0 kts 193°